Terug naar catalogus

ICEYE-X77

ActiefWetenschapSSO
NORAD 69892·PAYLOAD·🇩🇪 Germany

Gelanceerd Jul 7, 2026 vanaf Vandenberg Space Force Base

Loading…

Volgende Passages (komende 24 uur)

TLE

VersSource: Space-Track

Epoch: Sep 14, 2026, 03:39 UTC

1 69892U 26156Z   26257.15209963  .00001180  00000-0  12176-3 0  9991
2 69892  97.7449 156.4726 0005947 293.7069  66.3526 14.92056371 10263

Volg ICEYE-X77 in realtime met AllMySat

Download on the App Store